Regional Weather Roundup
Issued by NWS Albany, NY

Home | Current Version | Previous Version | Text Only | Print | Product List | Glossary On
Versions: 1 2 3 4 5 6 7 8 9 10 11 12 13 14 15 16 17 18 19 20 21 22 23 24 25 26 27 28 29 30 31 32 33 34 35 36 37 38 39 40 41 42 43 44 45 46 47 48 49 50
000
ASUS41 KALY 201210
RWRALY

NEW YORK STATE HOURLY WEATHER ROUNDUP
NATIONAL WEATHER SERVICE ALBANY NY
800 AM EDT SUN AUG 20 2017

NOTE: "FAIR" INDICATES FEW OR NO CLOUDS BELOW 12,000 FEET WITH NO
SIGNIFICANT WEATHER AND/OR NO OBSTRUCTIONS TO VISIBILITY.

NYZ032-033-038>043-046>054-057>066-NYZ062>081-082-084-201300-
EAST


CITY           SKY/WX    TMP DP  RH WIND       PRES   REMARKS
ALBANY         PTSUNNY   68  61  78 W7        30.01R
GLENS FALLS    PTSUNNY   65  61  87 CALM      29.98R
POUGHKEEPSIE   SUNNY     68  61  78 W5        30.00R
NEWBURGH       SUNNY     66  63  88 NW9       30.03R
MONTGOMERY     SUNNY     68  61  78 W6        30.04R
WHITE PLAINS   SUNNY     69  61  75 NW10      30.02R
ISLIP          MOSUNNY   72  64  76 NW12      30.00R
NEW YORK CITY  MOSUNNY   72  63  73 NW16      30.01R
CENTRAL PARK   SUNNY     70  61  73 CALM      30.06R
$$

NYZ005>009-017-018-044>046-055-056-201300-
CENTRAL


CITY           SKY/WX    TMP DP  RH WIND       PRES   REMARKS
FULTON         MOSUNNY   66  62  87 SW5       30.06R
SYRACUSE       MOSUNNY   64  62  93 W10       30.05R
ROME           PTSUNNY   64  63  96 W7        30.05R
ELMIRA         SUNNY     61  60  97 SW5       30.09R
BINGHAMTON     SUNNY     59  57  93 NW8       30.09R
MONTICELLO     MOSUNNY   62  59  90 NW6       30.08R
$$

NYZ026>034-041>043-087-201300-
NORTH


CITY           SKY/WX    TMP DP  RH WIND       PRES   REMARKS
WATERTOWN      SUNNY     65  63  93 SW3       30.03R
FORT DRUM      NOT AVBL
OGDENSBURG     FAIR      66  62  87 W6        30.01R
MASSENA        SUNNY     64  61  90 W7        30.00R
SARANAC LAKE   MOSUNNY   60  56  86 SW5       30.02R
PLATTSBURGH    SUNNY     68  57  68 W6        29.96R
$$

NYZ001>004-010>016-019>021-085-201300-
WEST


CITY           SKY/WX    TMP DP  RH WIND       PRES   REMARKS
NIAGARA FALLS  MOSUNNY   67  60  78 S5        30.06R
BUFFALO        PTSUNNY   65  60  84 S8        30.07R
DUNKIRK        SUNNY     66  58  75 S8        30.08R
JAMESTOWN      SUNNY     56  56 100 S5        30.13R
WELLSVILLE     SUNNY     61  55  81 W6        30.15R
ROCHESTER      PTSUNNY   62  58  86 SW7       30.07R
PENN YAN       SUNNY     63  57  81 S6        30.10R
$$

             KEY
       WCI = WIND CHILL INDEX
       VSB = VISIBILITY
       HX  = HEAT INDEX
$$



USA.gov is the U.S. government's official web portal to all federal, state and local government web resources and services.